Regional Weather Roundup
Issued by NWS

Home | Current Version | Previous Version | Text Only | Print | Product List | Glossary Off
Versions: 1 2 3 4 5 6 7 8 9 10 11 12 13 14 15 16 17 18 19 20 21 22 23 24 25 26 27 28 29 30 31 32 33 34 35 36 37 38 39 40 41 42 43 44 45 46 47 48 49 50

000
ASUS43 KLMK 230210
RWRKY
KENTUCKY REGIONAL WEATHER ROUNDUP
NATIONAL WEATHER SERVICE LOUISVILLE KY
1000 PM EDT WED MAR 22 2017

NOTE "FAIR" INDICATES FEW OR NO CLOUDS BELOW 12,000 FEET
WITH NO SIGNIFICANT WEATHER AND/OR OBSTRUCTIONS TO VISIBILITY.

KYZ001>023-026-027-061>063-070>075-230300-
WESTERN AND SOUTH CENTRAL KENTUCKY

CITY           SKY/WX    TMP DP  RH WIND       PRES   REMARKS
PADUCAH        CLEAR     47  21  35 NE8       30.35S
HENDERSON      CLOUDY    45  18  33 NE14      30.38S
OWENSBORO      CLEAR     45  17  32 E13       30.40S
HOPKINSVILLE   PTCLDY    44  23  42 NE8       30.35R
BOWLING GREEN  PTCLDY    42  21  43 NE8       30.39R
GLASGOW        CLEAR     41  21  44 NE8       30.39R
$$

KYZ024-025-028>034-038-045-046-053-230300-
NORTH CENTRAL KENTUCKY

CITY           SKY/WX    TMP DP  RH WIND       PRES   REMARKS
LOUISVILLE/SDF CLOUDY    41  15  35 NE12      30.44R
LOUISVILLE/LOU CLEAR     41  17  38 E9        30.45R
FORT KNOX      CLEAR     40  16  36 NE7       30.40R
$$

KYZ035>037-039>044-047>052-055>060-089>105-230300-
NORTHEAST KENTUCKY

CITY           SKY/WX    TMP DP  RH WIND       PRES   REMARKS
LEXINGTON      CLEAR     34  19  54 NE8       30.42S WCI  27
COVINGTON      PTCLDY    36  20  52 NE13      30.46R WCI  27
FRANKFORT      CLEAR     38  19  46 NE7       30.43R WCI  33
$$

KYZ054-064>069-076>088-106>120-230300-
SOUTHEAST KENTUCKY

CITY           SKY/WX    TMP DP  RH WIND       PRES   REMARKS
JACKSON        CLEAR     38  15  39 VRB3      30.40R
LONDON         CLEAR     41  14  33 NE8       30.37R
SOMERSET       CLEAR     37  19  48 N9        30.40R WCI  31
MIDDLESBORO    CLEAR     42  23  47 CALM      30.37R
MONTICELLO     CLEAR     40  22  48 N12G18    30.40R WCI  33
$$





USA.gov is the U.S. government's official web portal to all federal, state and local government web resources and services.